Lamar, CO

2:31 PM MDT on October 21, 2017 (GMT -0600)
Lamar Municipal

Weather History for KLAA - September, 2014

Change the Weather History Date:

Sunday, September 7, 2014

  Actual Average Record
Temperature  
Mean Temperature 71 °F 70 °F  
Max Temperature 88 °F 86 °F 102 °F (1922)
Min Temperature 54 °F 55 °F 42 °F (1943)
Degree Days  
Heating Degree Days 0 1  
Month to date heating degree days 11 6  
Since 1 July heating degree days 11 11  
Cooling Degree Days 6 6  
Month to date cooling degree days 48 46  
Year to date cooling degree days 1207 1035  
Growing Degree Days 21 (Base 50)    
Moisture  
Dew Point 55 °F    
Average Humidity 59    
Maximum Humidity 86    
Minimum Humidity 31    
Precipitation  
Precipitation 0.00 in 0.04 in 1.16 in (2003)
Month to date precipitation 0.03 0.35  
Year to date precipitation 10.25  
Sea Level Pressure  
Sea Level Pressure 29.98 in    
Wind  
Wind Speed 10 mph (South)    
Max Wind Speed 20 mph    
Max Gust Speed 25 mph    
Visibility 9 miles    
Events      
T = Trace of Precipitation, MM = Missing Value Source: NWS Daily Summary

Daily Weather History Graph

Daily Weather History Graph

Search for Another Location

Airport or City:

Trip Planner

Search our weather history database for the weather conditions in past years. The results will help you decide how hot, cold, wet, or windy it might be!

Date:

Astronomy

Sep. 07, 2014 Rise Set
Actual Time 6:25 AM MDT 7:11 PM MDT
Civil Twilight 5:59 AM MDT 7:37 PM MDT
Nautical Twilight 5:27 AM MDT 8:09 PM MDT
Astronomical Twilight 4:54 AM MDT 8:41 PM MDT
Moon 6:11 PM MDT (9/7) 4:42 AM MDT (9/7)
Length of Visible Light 13h 38m
Length of Day
12h 45m
Waxing Gibbous, 97% of the Moon is Illuminated
Sep 7
Waxing Gibbous
Sep 8
Full
Sep 15
Last Quarter
Sep 24
New
Oct 1
First Quarter

Hourly Weather History & Observations

Time (MDT) Temp. Heat Index Dew Point Humidity Pressure Visibility Wind Dir Wind Speed Gust Speed Precip Events Conditions
12:53 AM 57.0 °F - 52.0 °F 83% 30.13 in 10.0 mi South 8.1 mph - N/A   Clear
1:53 AM 55.0 °F - 51.1 °F 86% 30.12 in 9.0 mi NE 6.9 mph - N/A   Clear
2:53 AM 57.9 °F - 51.1 °F 78% 30.10 in 9.0 mi Calm Calm - N/A   Clear
3:53 AM 57.9 °F - 52.0 °F 81% 30.08 in 9.0 mi SSE 10.4 mph - N/A   Clear
4:53 AM 57.0 °F - 52.0 °F 83% 30.07 in 8.0 mi SSE 15.0 mph - N/A   Clear
5:53 AM 55.0 °F - 51.1 °F 86% 30.07 in 7.0 mi Calm Calm - N/A   Clear
6:53 AM 55.0 °F - 52.0 °F 89% 30.07 in 5.0 mi Calm Calm - N/A   Clear
7:53 AM 62.1 °F - 55.0 °F 78% 30.07 in 7.0 mi SSW 4.6 mph - N/A   Clear
8:53 AM 68.0 °F - 55.9 °F 65% 30.05 in 9.0 mi South 9.2 mph - N/A   Clear
9:53 AM 73.0 °F - 57.0 °F 57% 30.04 in 10.0 mi South 8.1 mph - N/A   Clear
10:53 AM 77.0 °F - 55.9 °F 48% 30.01 in 10.0 mi South 8.1 mph - N/A   Clear
11:53 AM 80.1 °F 80.2 °F 55.9 °F 43% 29.98 in 10.0 mi South 10.4 mph - N/A   Clear
12:53 PM 84.0 °F 83.0 °F 55.9 °F 38% 29.94 in 10.0 mi South 18.4 mph 24.2 mph N/A   Clear
1:53 PM 86.0 °F 84.5 °F 55.0 °F 35% 29.91 in 10.0 mi South 16.1 mph 23.0 mph N/A   Clear
3:53 PM 87.1 °F 85.1 °F 54.0 °F 32% 29.84 in 10.0 mi SSE 16.1 mph 21.9 mph N/A   Clear
4:53 PM 87.1 °F 85.3 °F 55.0 °F 33% 29.83 in 10.0 mi SSE 11.5 mph 20.7 mph N/A   Clear
5:53 PM 84.9 °F 83.7 °F 55.9 °F 37% 29.84 in 10.0 mi South 16.1 mph - N/A   Clear
6:53 PM 80.1 °F 80.2 °F 55.9 °F 43% 29.85 in 10.0 mi South 10.4 mph - N/A   Clear
7:53 PM 75.9 °F - 57.0 °F 52% 29.84 in 10.0 mi South 12.7 mph - N/A   Clear
10:53 PM 71.1 °F - 57.9 °F 63% 29.83 in 10.0 mi SSW 13.8 mph - N/A   Clear
11:53 PM 66.9 °F - 57.9 °F 73% 29.84 in 10.0 mi NW 8.1 mph - N/A   Clear